"TOA5","AWS1","CR1000","7964","CR1000.Std.14","CPU:AWS1_114.CR1","64363","TBL110"
"TIMESTAMP","RECORD","Wind_spd_WVc(1)","Wind_spd_WVc(2)","Air_Temp_Avg","Humidity_Avg","SW_upper_Wm2_Avg","Rain_Tot","Press_Avg","Issui_Tot","Depth_cm","SR50A_Raw","Quality","Ground_Temp_Avg(1)","Ground_Temp_Avg(2)","SW_lower_Wm2_Avg","Albedo_Avg","SWC_per(1)","SWC_per(2)","Period(1)","Period(2)"
"TS","RN","","","","","","","","","","","","","","","","","","",""
"","","WVc","WVc","Avg","Avg","Avg","Tot","Avg","Tot","Smp","Smp","Smp","Avg","Avg","Avg","Avg","Smp","Smp","Smp","Smp"
"2017-01-11 00:00:00",270205,1.142,324.7,-5.411,89.8,0,0,859.4968,0,29.41,2.915,192,2.233,2.883,0.02275278,0,50.83,58.09,33.5,35.24
"2017-01-11 00:10:00",270206,0.904,336.2,-5.522,86.8,0,0,859.4609,0.5,29.32,2.917,192,2.235,2.883,0,0,50.83,58.09,33.5,35.24
"2017-01-11 00:20:00",270207,0.968,325.9,-5.713,84.6,0,0,859.2502,0,29.32,2.918,192,2.232,2.883,0,0,50.83,58.09,33.5,35.24
"2017-01-11 00:30:00",270208,0.348,36.23,-5.981,85.9,0,0,859.2481,0,29.16,2.921,193,2.199,2.884,0,0,50.83,58.09,33.5,35.24
"2017-01-11 00:40:00",270209,0.095,30.57,-6.194,88.5,0,0,859.2439,0,29.21,2.921,192,2.172,2.893,0,0,50.83,58.09,33.5,35.24
"2017-01-11 00:50:00",270210,0.538,313.6,-6.035,89,0,0,859.246,0,29.19,2.92,192,2.158,2.9,0.3867973,0,50.83,58.09,33.5,35.24
"2017-01-11 01:00:00",270211,0.2,341.7,-5.911,87.6,0,0,859.2439,0,28.75,2.924,192,2.177,2.891,0.5839881,0,50.83,58.15,33.5,35.25
"2017-01-11 01:10:00",270212,0.155,10.93,-5.892,90,0,0,859.2481,0,28.84,2.924,189,2.182,2.886,0.3943816,0,50.83,58.09,33.5,35.24
"2017-01-11 01:20:00",270213,0.29,324.1,-6.046,93.4,0,0,859.2481,0,28.27,2.93,184,2.17,2.896,0.227528,0,50.77,58.09,33.49,35.24
"2017-01-11 01:30:00",270214,0.238,352.9,-6.06,94.5,0,0,859.2923,0,28.99,2.923,214,2.179,2.894,0.1251419,0,50.83,58.09,33.5,35.24
"2017-01-11 01:40:00",270215,0.175,296.2,-6.178,95,0,0,859.402,0,28.88,2.925,204,2.215,2.886,0,0,50.83,58.09,33.5,35.24
"2017-01-11 01:50:00",270216,0.066,81.8,-6.362,94.5,0,0,859.3514,0,28.68,2.928,201,2.199,2.906,0,0,50.83,58.15,33.5,35.25
"2017-01-11 02:00:00",270217,0.084,8.5,-6.45,90.8,0,0,859.383,0,28.85,2.926,213,2.199,2.901,0,0,50.83,58.15,33.5,35.25
"2017-01-11 02:10:00",270218,0.169,147.1,-6.48,89.1,0,0,859.2734,0,28.57,2.93,197,2.204,2.916,0,0,50.83,58.09,33.5,35.24
"2017-01-11 02:20:00",270219,0.07,29.72,-6.729,91.1,0,0,859.4609,0,28.66,2.93,198,2.21,2.927,0.01896241,0,50.83,58.09,33.5,35.24
"2017-01-11 02:30:00",270220,0.203,32.45,-6.799,91.4,0,0,859.3197,0,28.63,2.931,197,2.219,2.942,0,0,50.83,58.09,33.5,35.24
"2017-01-11 02:40:00",270221,0.37,48.92,-6.806,89.4,0,0,859.2693,0,28.75,2.929,197,2.22,2.947,0.04551049,0,50.83,58.09,33.5,35.24
"2017-01-11 02:50:00",270222,0.703,292.3,-6.717,87.1,0,0,859.2497,0,28.6,2.93,196,2.226,2.952,0.1972168,0,50.83,58.09,33.5,35.24
"2017-01-11 03:00:00",270223,1.024,356.5,-6.627,82.7,0,0,859.2858,0,28.79,2.929,191,2.239,2.962,0.2920469,0,50.83,58.09,33.5,35.24
"2017-01-11 03:10:00",270224,0.809,356.7,-6.663,81.4,0,0,859.4671,0,28.64,2.93,190,2.251,2.985,0.1099967,0,50.83,58.09,33.5,35.24
"2017-01-11 03:20:00",270225,0.449,347.2,-6.708,83.5,0,0,859.3163,0,28.61,2.93,192,2.26,2.993,0.003793178,0,50.83,58.09,33.5,35.24
"2017-01-11 03:30:00",270226,0.508,293.9,-6.697,85,0,0,859.1999,0,28.53,2.931,190,2.27,2.996,0.06827784,0,50.83,58.09,33.5,35.24
"2017-01-11 03:40:00",270227,0.594,170.5,-6.904,87.6,0,0,858.9845,0,28.37,2.934,190,2.277,3.006,0,0,50.83,58.09,33.5,35.24
"2017-01-11 03:50:00",270228,0.438,297.2,-6.979,86.7,0,0,858.9921,0,28.42,2.933,180,2.282,2.977,0,0,50.83,58.09,33.5,35.24
"2017-01-11 04:00:00",270229,0.479,311.2,-6.884,85.5,0,0,859.0758,0,28.42,2.933,186,2.307,2.991,0.0493141,0,50.83,58.09,33.5,35.24
"2017-01-11 04:10:00",270230,0.709,305.9,-6.819,84.5,0,0,859.06,0,28.45,2.932,190,2.291,2.98,0.3186465,0,50.88,58.09,33.52,35.24
"2017-01-11 04:20:00",270231,0.359,102.1,-6.704,83,0,0,859.0608,0,28.4,2.932,176,2.28,2.962,0.5310791,0,50.83,58.09,33.5,35.24
"2017-01-11 04:30:00",270232,0.818,178.2,-6.742,83.4,0,0,859.0399,0,28.35,2.933,177,2.281,2.967,0.6562626,0,50.83,58.09,33.5,35.24
"2017-01-11 04:40:00",270233,0.712,177.6,-6.775,84.3,0,0,859.0547,0,28.4,2.933,175,2.279,2.975,0.3338216,0,50.83,58.09,33.5,35.24
"2017-01-11 04:50:00",270234,0.89,170.3,-6.811,84.4,0,0,859.0653,0,28.4,2.933,174,2.281,3.008,0.2389859,0,50.83,58.09,33.5,35.24
"2017-01-11 05:00:00",270235,0.85,187.6,-6.841,83.7,0,0,859.2087,0,28.08,2.936,179,2.281,2.99,0.2276056,0,50.83,58.09,33.5,35.24
"2017-01-11 05:10:00",270236,0.597,187.2,-6.893,85.4,0,0,859.0842,0,27.93,2.938,189,2.281,2.995,0.1707042,0,50.83,58.09,33.5,35.24
"2017-01-11 05:20:00",270237,0.554,182.5,-6.898,85,0,0,859.0927,0,26.62,2.951,200,2.281,3.004,0.2276056,0,50.83,58.09,33.5,35.24
"2017-01-11 05:30:00",270238,0.58,276.7,-6.863,85.8,0,0,859.0801,0,26.84,2.949,196,2.281,3.004,0.2276056,0,50.83,58.09,33.5,35.24
"2017-01-11 05:40:00",270239,0.88,279.1,-6.825,85.4,0,0,859.1348,0,26.79,2.949,196,2.281,3.012,0.2276056,0,50.83,58.09,33.5,35.24
"2017-01-11 05:50:00",270240,0.593,282.8,-6.846,86.5,0,0,859.2065,0,27.11,2.946,188,2.281,3.014,0.1517371,0,50.83,58.09,33.5,35.24
"2017-01-11 06:00:00",270241,0.605,268.8,-6.85,84.9,0,0,859.1454,0,27.21,2.945,196,2.281,3.007,0.1707042,0,50.83,58.09,33.5,35.24
"2017-01-11 06:10:00",270242,0.72,242.7,-6.844,85,0,0,859.2993,0,27.14,2.946,195,2.281,3.008,0.2238122,0,50.83,58.09,33.5,35.24
"2017-01-11 06:20:00",270243,0.341,191,-6.866,85.3,0,0,859.3183,0,27.04,2.947,195,2.281,3.014,0.1934648,0,50.83,58.15,33.5,35.25
"2017-01-11 06:30:00",270244,0.755,187.3,-6.903,84.6,0,0,859.2867,0,27.04,2.947,190,2.281,3.01,0.2276056,0,50.83,58.15,33.5,35.25
"2017-01-11 06:40:00",270245,0.648,176.7,-6.903,84,0,0,859.2297,0,27.14,2.946,191,2.281,3.007,0.2276056,0,50.83,58.09,33.5,35.24
"2017-01-11 06:50:00",270246,0.42,205.3,-6.87,83.4,0,0,859.2719,0,27.29,2.944,196,2.281,3.01,0.3034741,0,50.83,58.09,33.5,35.24
"2017-01-11 07:00:00",270247,0.655,188.2,-6.823,82.7,0.03540882,0,859.2259,0,26.3,2.954,196,2.281,3.01,1.016638,1.012,50.83,58.15,33.5,35.25
"2017-01-11 07:10:00",270248,0.654,185.7,-6.845,85.4,0.5586725,0,859.0908,0,26,2.957,189,2.281,3.015,2.162253,4.435,50.83,58.09,33.5,35.24
"2017-01-11 07:20:00",270249,0.285,253.1,-6.835,84.6,1.908142,0,859.1233,0,27.41,2.943,206,2.281,2.997,4.688675,2.523,50.83,58.09,33.5,35.24
"2017-01-11 07:30:00",270250,0.28,263.6,-6.832,84.9,3.41105,0,859.2907,0,27.58,2.941,214,2.281,2.998,7.939643,2.335,50.88,58.09,33.52,35.24
"2017-01-11 07:40:00",270251,0.31,248.1,-6.729,84.8,3.18286,0,859.3209,0,26.9,2.947,197,2.281,3.004,7.643755,2.41,50.83,58.09,33.5,35.24
"2017-01-11 07:50:00",270252,0.114,48.58,-6.621,85.8,5.020184,0,859.3811,0,26.9,2.947,203,2.288,2.994,11.58892,2.305,50.83,58.15,33.5,35.25
"2017-01-11 08:00:00",270253,0.523,197.3,-6.579,86.6,8.683029,0,859.4016,0,26.65,2.949,198,2.299,2.987,19.64995,2.269,50.83,58.09,33.5,35.24
"2017-01-11 08:10:00",270254,0.208,321.6,-6.454,87.6,11.53541,0,859.4099,0.5,26.26,2.952,194,2.304,2.972,25.63218,2.22,50.83,58.09,33.5,35.24
"2017-01-11 08:20:00",270255,0.249,266.6,-6.301,87.6,13.10126,0,859.6064,0,27.08,2.943,212,2.311,2.971,29.11455,2.223,50.88,58.15,33.52,35.25
"2017-01-11 08:30:00",270256,0.059,79.27,-6.152,88.6,16.73647,0,859.582,0,28.25,2.93,202,2.321,2.971,37.17915,2.221,50.88,58.09,33.52,35.24
"2017-01-11 08:40:00",270257,0.126,149.4,-6.025,88.8,23.18402,0,859.5944,0,29.55,2.916,201,2.314,2.963,51.14104,2.207,50.88,58.09,33.52,35.24
"2017-01-11 08:50:00",270258,0.174,183.2,-5.904,88.2,23.40745,0,859.733,0,29.65,2.915,199,2.286,2.944,51.90924,2.217,50.88,58.15,33.52,35.25
"2017-01-11 09:00:00",270259,0.369,171.4,-5.871,88.4,27.35196,0,859.7644,0,29.56,2.916,255,2.251,2.903,60.41059,2.21,50.88,58.09,33.52,35.24
"2017-01-11 09:10:00",270260,0.31,181.2,-5.837,88.9,30.62234,0,859.6565,0,29.92,2.912,199,2.216,2.884,66.762,2.176,50.83,58.09,33.5,35.24
"2017-01-11 09:20:00",270261,0.341,162.5,-5.766,89.3,37.75138,0,859.736,0,29.98,2.911,210,2.183,2.862,83.67187,2.21,50.83,58.09,33.5,35.24
"2017-01-11 09:30:00",270262,0.604,212.8,-5.77,88.6,32.24769,0,859.7501,0,29.89,2.912,204,2.177,2.91,70.31264,2.163,50.83,58.09,33.5,35.24
"2017-01-11 09:40:00",270263,0.394,183.9,-5.569,87.2,45.12764,0,859.7499,0,30.49,2.904,197,2.185,2.911,99.91673,2.21,50.83,58.09,33.5,35.24
"2017-01-11 09:50:00",270264,0.487,159,-5.337,86.7,49.21354,0,859.7499,0,31.24,2.896,190,2.237,2.887,111.7927,2.27,50.83,58.15,33.5,35.25
"2017-01-11 10:00:00",270265,0.398,165.2,-5.239,86.3,46.25182,0,859.7435,0,31.3,2.894,193,2.236,2.87,106.324,2.298,50.88,58.15,33.52,35.25
"2017-01-11 10:10:00",270266,0.313,170.4,-5.009,85.4,52.7687,0,859.7499,0,31.73,2.889,194,2.24,2.849,121.6706,2.304,50.83,58.09,33.5,35.24
"2017-01-11 10:20:00",270267,0.477,48.51,-4.912,84.7,46.20063,0,859.634,0,31.41,2.892,190,2.262,2.875,107.105,2.309,50.83,58.09,33.5,35.24
"2017-01-11 10:30:00",270268,0.474,284.7,-5.024,84.2,38.91283,0,859.497,0,31.4,2.893,190,2.274,2.914,88.23537,2.264,50.83,58.15,33.5,35.25
"2017-01-11 10:40:00",270269,0.367,280,-5.105,85.9,40.01406,0,859.5159,0.5,31.11,2.895,186,2.264,2.926,92.38776,2.304,50.83,58.09,33.5,35.24
"2017-01-11 10:50:00",270270,0.221,251.8,-4.77,88,49.58692,0,859.5918,0,32.36,2.881,193,2.252,2.928,119.6115,2.411,50.88,58.09,33.52,35.24
"2017-01-11 11:00:00",270271,0.268,21.21,-4.638,89.1,53.0322,0,859.5349,0,31.52,2.889,197,2.237,2.928,128.2424,2.416,50.88,58.09,33.52,35.24
"2017-01-11 11:10:00",270272,0.33,9.32,-4.51,90.6,49.0599,0,859.4001,0,33.05,2.874,199,2.237,2.929,121.5493,2.475,50.83,58.15,33.5,35.25
"2017-01-11 11:20:00",270273,0.315,348.4,-4.719,87.1,58.84499,0,859.0964,0,33.46,2.869,203,2.237,2.927,147.544,2.507,50.83,58.09,33.5,35.24
"2017-01-11 11:30:00",270274,0.268,355.9,-4.451,88.4,54.89133,0,858.9724,0.5,33.64,2.867,198,2.267,2.906,140.177,2.553,50.83,58.15,33.5,35.25
"2017-01-11 11:40:00",270275,0.343,329.7,-4.36,89.7,47.52262,0,858.7963,0,32.73,2.876,210,2.3,2.893,120.5471,2.531,50.83,58.09,33.5,35.24
"2017-01-11 11:50:00",270276,0.167,330.5,-4.407,88,49.75501,0,858.6516,0,34.3,2.859,227,2.277,2.874,125.7057,2.522,50.83,58.15,33.5,35.25
"2017-01-11 12:00:00",270277,0.356,5.081,-4.183,88.7,64.88817,0,858.4117,0,32.81,2.875,198,2.243,2.856,167.3582,2.578,50.83,58.09,33.5,35.24
"2017-01-11 12:10:00",270278,0.387,344,-4.329,89.2,51.59207,0,858.3781,0,34.35,2.86,270,2.225,2.846,133.888,2.593,50.83,58.15,33.5,35.25
"2017-01-11 12:20:00",270279,0.262,348,-4.474,89.7,38.53026,0,858.1774,0,35.2,2.851,197,2.231,2.841,99.18804,2.568,50.88,58.15,33.52,35.25
"2017-01-11 12:30:00",270280,0.278,314.9,-4.197,90.1,56.19881,0,858.1436,0,34.62,2.855,199,2.221,2.84,150.345,2.67,50.83,58.09,33.5,35.24
"2017-01-11 12:40:00",270281,0.284,353.6,-3.939,87.5,65.52849,0,858.1351,0,34.58,2.854,197,2.164,2.855,171.0124,2.617,50.88,58.09,33.52,35.24
"2017-01-11 12:50:00",270282,0.488,308.6,-3.854,86.8,75.44797,0,858.0193,0,33.54,2.864,200,2.149,2.898,196.1721,2.61,50.88,58.15,33.52,35.25
"2017-01-11 13:00:00",270283,0.387,349.7,-3.787,83.6,59.67034,0,857.8907,0.5,34.48,2.855,210,2.148,2.897,154.0824,2.575,50.88,58.15,33.52,35.25
"2017-01-11 13:10:00",270284,0.606,306.3,-3.799,83.5,74.59873,0,857.7791,0,34.27,2.859,213,2.148,2.911,182.309,2.455,50.88,58.15,33.52,35.25
"2017-01-11 13:20:00",270285,0.473,356.1,-4.104,84.3,49.61716,0,857.7264,0,34.37,2.858,204,2.148,2.919,128.445,2.588,50.88,58.15,33.52,35.25
"2017-01-11 13:30:00",270286,0.656,321.8,-4.366,86.5,32.50671,0,857.5978,0,33.61,2.867,201,2.161,2.913,80.15728,2.461,50.83,58.09,33.5,35.24
"2017-01-11 13:40:00",270287,0.408,92.9,-4.274,86.7,35.365,0,857.5031,0,33.19,2.871,202,2.184,2.872,91.46915,2.587,50.83,58.09,33.5,35.24
"2017-01-11 13:50:00",270288,0.479,300.9,-4.38,84.8,41.49441,0,857.4062,0,32.81,2.876,216,2.203,2.846,93.15607,2.266,50.83,58.09,33.5,35.24
"2017-01-11 14:00:00",270289,0.635,300.5,-4.41,84.5,38.21544,0,857.3851,0,33.08,2.871,212,2.225,2.839,84.98681,2.202,50.83,58.15,33.5,35.25
"2017-01-11 14:10:00",270290,0.476,40.03,-4.192,81.6,30.80038,0,857.383,0,31.89,2.883,203,2.227,2.838,76.80997,2.499,50.88,58.09,33.52,35.24
"2017-01-11 14:20:00",270291,0.491,304.6,-4.197,82.8,40.9833,0,857.3851,0,32.83,2.873,237,2.232,2.836,109.4529,2.661,50.88,58.15,33.52,35.25
"2017-01-11 14:30:00",270292,0.354,344.7,-4.15,83.5,27.67081,0,857.3851,0,33.17,2.871,252,2.232,2.839,67.99248,2.464,50.88,58.15,33.52,35.25
"2017-01-11 14:40:00",270293,0.392,76.38,-4.223,83.4,27.2226,0,857.3851,0,34.83,2.854,388,2.233,2.844,68.94019,2.527,50.88,58.09,33.52,35.24
"2017-01-11 14:50:00",270294,0.338,171.2,-4.208,83.8,30.98124,0,857.3851,0,34.9,2.854,403,2.233,2.855,77.35206,2.485,50.83,58.15,33.5,35.25
"2017-01-11 15:00:00",270295,0.497,95.4,-4.158,83.6,40.78279,0,857.3851,0,33.57,2.866,324,2.233,2.855,99.27448,2.431,50.88,58.09,33.52,35.24
"2017-01-11 15:10:00",270296,0.939,284.4,-4.315,83.2,34.37423,0,857.3746,0,35.25,2.85,383,2.233,2.861,84.91479,2.462,50.83,58.09,33.5,35.24
"2017-01-11 15:20:00",270297,0.334,252.1,-4.288,83.1,24.97764,0,857.3851,0,35.15,2.851,401,2.233,2.878,60.64962,2.415,50.83,58.15,33.5,35.25
"2017-01-11 15:30:00",270298,0.256,109.8,-4.348,83.3,21.25832,0,857.3556,0,32.86,2.875,205,2.232,2.873,50.31959,2.345,50.88,58.15,33.52,35.25
"2017-01-11 15:40:00",270299,0.52,40.54,-4.369,82.2,20.84943,0,857.3809,0,33.81,2.865,248,2.232,2.856,53.76925,2.539,50.88,58.15,33.52,35.25
"2017-01-11 15:50:00",270300,0.404,357.7,-4.533,82.6,8.838303,0,857.4315,0,34.2,2.862,289,2.232,2.841,22.08163,2.474,50.88,58.15,33.52,35.25
"2017-01-11 16:00:00",270301,0.583,282.4,-4.745,82.4,7.367873,0,857.5663,0,35.38,2.851,411,2.178,2.838,17.59707,2.379,50.83,58.09,33.5,35.24
"2017-01-11 16:10:00",270302,0.495,234.6,-4.843,86,7.733515,0,857.4589,0,33.93,2.867,226,2.16,2.838,19.62896,2.524,50.88,58.15,33.52,35.25
"2017-01-11 16:20:00",270303,0.162,187.3,-4.93,87.5,5.748134,0,857.5869,0,33.88,2.867,206,2.207,2.843,14.13247,2.444,50.83,58.15,33.5,35.25
"2017-01-11 16:30:00",270304,0.648,37.74,-5.056,87.3,4.875671,0,857.6592,0,33.96,2.867,197,2.254,2.863,11.02098,2.24,50.88,58.09,33.52,35.24
"2017-01-11 16:40:00",270305,0.401,142.6,-5.036,87.9,1.950457,0,857.6564,0,33.87,2.868,201,2.277,2.89,4.227594,2.206,50.83,58.15,33.5,35.25
"2017-01-11 16:50:00",270306,0.277,250.1,-5.149,88,1.380369,0,857.6795,0,33.93,2.868,200,2.284,2.901,3.010724,2.158,50.88,58.15,33.52,35.25
"2017-01-11 17:00:00",270307,0.272,302.3,-5.147,85.9,0.4798021,0,857.7911,0,33.92,2.868,209,2.249,2.904,0.9745381,2.247,50.88,58.09,33.52,35.24
"2017-01-11 17:10:00",270308,0.527,259.5,-5.222,88.1,0.06685913,0,857.946,0,34.01,2.868,197,2.233,2.929,0.1554743,0.514,50.83,58.15,33.5,35.25
"2017-01-11 17:20:00",270309,0.865,318.2,-5.403,89.6,0.04719539,0,857.9733,0,34.46,2.864,192,2.237,2.884,0,0,50.88,58.09,33.52,35.24
"2017-01-11 17:30:00",270310,0.854,314.5,-5.544,88.9,0.01966483,0,857.9819,0,34.45,2.865,192,2.235,2.914,0,0,50.88,58.15,33.52,35.25
"2017-01-11 17:40:00",270311,0.695,281.8,-5.666,88.7,0.08259233,0,858.0759,0,34.22,2.868,193,2.236,2.924,0,0,50.88,58.15,33.52,35.25
"2017-01-11 17:50:00",270312,1.021,308.1,-5.764,87.1,0,0,858.2258,0.5,33.75,2.873,201,2.236,2.927,0,0,50.88,58.15,33.52,35.25
"2017-01-11 18:00:00",270313,1.743,313.4,-5.764,84.7,0,0,858.2175,0,34.34,2.867,190,2.236,2.928,0.06067409,0,50.88,58.15,33.52,35.25
"2017-01-11 18:10:00",270314,1.209,311.7,-5.774,84.5,0,0,858.2322,0,34.14,2.869,196,2.236,2.927,0.1213482,0,50.88,58.15,33.52,35.25
"2017-01-11 18:20:00",270315,0.923,343.7,-5.835,84.5,0,0,858.2301,0,33.79,2.873,197,2.237,2.927,0.1061796,0,50.88,58.15,33.52,35.25
"2017-01-11 18:30:00",270316,0.903,336.3,-5.804,84.5,0,0,858.2385,0,33.55,2.875,200,2.226,2.925,0.2237357,0,50.88,58.15,33.52,35.25
"2017-01-11 18:40:00",270317,0.674,318.7,-5.864,85.2,0,0,858.4493,0,33.5,2.876,192,2.238,2.917,0.06067409,0,50.88,58.15,33.52,35.25
"2017-01-11 18:50:00",270318,0.887,307.8,-5.953,85.2,0,0,858.4304,0,33.98,2.872,195,2.225,2.917,0,0,50.88,58.15,33.52,35.25
"2017-01-11 19:00:00",270319,0.792,344.6,-5.996,84.9,0,0,858.4725,0,33.94,2.872,195,2.225,2.868,0.09480325,0,50.88,58.15,33.52,35.25
"2017-01-11 19:10:00",270320,0.6,339.3,-5.935,84.1,0,0,858.405,0,33.84,2.873,195,2.222,2.87,0.204775,0,50.83,58.15,33.5,35.25
"2017-01-11 19:20:00",270321,0.841,359.1,-5.94,83.8,0,0,858.2406,0,33.84,2.873,192,2.195,2.897,0.1630616,0,50.88,58.15,33.52,35.25
"2017-01-11 19:30:00",270322,0.811,307.2,-5.94,83.6,0,0,858.2428,0,33.72,2.874,196,2.192,2.914,0.2275278,0,50.88,58.15,33.52,35.25
"2017-01-11 19:40:00",270323,0.646,12.77,-5.974,84.3,0,0,858.2849,0,33.39,2.878,196,2.192,2.905,0.1933987,0,50.83,58.15,33.5,35.25
"2017-01-11 19:50:00",270324,0.92,331.4,-6.01,84.5,0,0,858.2659,0,33.09,2.881,197,2.201,2.867,0.1971908,0,50.88,58.15,33.52,35.25
"2017-01-11 20:00:00",270325,0.945,300.2,-6.063,85.1,0,0,858.4387,0,32.94,2.883,195,2.203,2.847,0.1365167,0,50.88,58.15,33.52,35.25
"2017-01-11 20:10:00",270326,1.004,301.5,-6.104,85.4,0,0,858.2849,0,32.62,2.886,201,2.202,2.866,0.09480325,0,50.88,58.09,33.52,35.24
"2017-01-11 20:20:00",270327,0.779,321.9,-6.099,85.3,0,0,858.1732,0,32.25,2.89,201,2.206,2.857,0.09859539,0,50.88,58.15,33.52,35.25
"2017-01-11 20:30:00",270328,0.768,296.3,-6.106,85.2,0,0,858.2154,0,33.13,2.881,198,2.211,2.883,0.1137668,0,50.88,58.15,33.52,35.25
"2017-01-11 20:40:00",270329,0.864,317.5,-6.146,85.9,0,0,858.2006,0,33.03,2.883,200,2.221,2.887,0.05309209,0,50.88,58.15,33.52,35.25
"2017-01-11 20:50:00",270330,0.406,297.6,-6.224,87.1,0,0,858.2322,0,33.23,2.881,197,2.242,2.866,0,0,50.88,58.15,33.52,35.25
"2017-01-11 21:00:00",270331,0.945,293.8,-6.268,87.6,0,0,858.1922,0,33.92,2.874,192,2.239,2.882,0,0,50.88,58.09,33.52,35.24
"2017-01-11 21:10:00",270332,0.47,292.2,-6.274,87.8,0,0,858.0742,0,33.24,2.881,192,2.241,2.895,0,0,50.83,58.15,33.5,35.25
"2017-01-11 21:20:00",270333,0.637,4.794,-6.246,86.9,0,0,858.0847,0,33.21,2.88,198,2.25,2.909,0.1972093,0,50.88,58.15,33.52,35.25
"2017-01-11 21:30:00",270334,0.645,345.8,-6.102,84.9,0,0,857.975,0,33.32,2.879,200,2.227,2.919,0.2275484,0,50.88,58.15,33.52,35.25
"2017-01-11 21:40:00",270335,0.935,352.7,-6.065,84.8,0,0,857.9329,0,33.97,2.872,194,2.238,2.919,0.2389253,0,50.88,58.15,33.52,35.25
"2017-01-11 21:50:00",270336,0.42,326.6,-6.061,86,0,0,857.9561,0,34.06,2.872,194,2.245,2.887,0.155491,0,50.88,58.15,33.52,35.25
"2017-01-11 22:00:00",270337,0.408,292.6,-6.225,87.7,0,0,857.7811,0,34.7,2.866,198,2.236,2.907,0,0,50.88,58.15,33.52,35.25
"2017-01-11 22:10:00",270338,0.232,63.38,-6.319,89.5,0,0,857.7242,0,34.6,2.867,196,2.231,2.917,0,0,50.83,58.15,33.5,35.25
"2017-01-11 22:20:00",270339,0.269,288,-6.355,89.1,0.1298048,0,857.701,0,34.96,2.864,196,2.242,2.927,0,0,50.88,58.15,33.52,35.25
"2017-01-11 22:30:00",270340,1.048,323.8,-6.279,88.2,0,0,857.7272,0,33.57,2.877,204,2.252,2.918,0.1820415,0,50.88,58.15,33.52,35.25
"2017-01-11 22:40:00",270341,0.363,355.9,-6.228,88.2,0,0,857.7281,0,33.77,2.875,230,2.247,2.91,0.2275493,0,50.88,58.15,33.52,35.25
"2017-01-11 22:50:00",270342,0.423,294.1,-6.152,88.3,0,0,857.5793,0,32.93,2.883,228,2.258,2.91,0.2275538,0,50.88,58.15,33.52,35.25
"2017-01-11 23:00:00",270343,0.106,336.8,-6.157,88.9,0,0,857.4736,0,35.05,2.862,201,2.25,2.923,0.1327419,0,50.88,58.15,33.52,35.25
"2017-01-11 23:10:00",270344,0.092,278.1,-6.198,90,0,0,857.4863,0,35.09,2.862,199,2.252,2.928,0,0,50.88,58.15,33.52,35.25
"2017-01-11 23:20:00",270345,0.034,53.84,-6.278,91,0,0,857.4748,0,35.09,2.862,199,2.252,2.921,0,0,50.88,58.09,33.52,35.24
"2017-01-11 23:30:00",270346,0.12,56.77,-6.233,91.2,0,0,857.4815,0,34.97,2.863,195,2.247,2.943,0.1668795,0,50.88,58.15,33.52,35.25
"2017-01-11 23:40:00",270347,0.546,304.7,-6.202,90,0,0,857.4816,0,34.06,2.872,195,2.26,2.929,0.2351508,0,50.88,58.09,33.52,35.24
"2017-01-11 23:50:00",270348,0.597,348.5,-6.325,91.8,0,0,857.428,0,34.95,2.864,223,2.225,2.942,0.06447485,0,50.88,58.09,33.52,35.24
